Montpelier, VT

1:37 PM EDT on July 20, 2017 (GMT -0400)
Knapp State

Weather History for KMPV - March, 2013

Change the Weather History Date:

Sunday, March 31, 2013

  Actual Average Record
Temperature  
Mean Temperature 36 °F 35 °F  
Max Temperature 51 °F 45 °F 82 °F (1998)
Min Temperature 21 °F 25 °F -4 °F (1954)
Degree Days  
Heating Degree Days 29 30  
Month to date heating degree days 1064 1118  
Since 1 July heating degree days 6613 7025  
Cooling Degree Days 0 0  
Month to date cooling degree days 0 0  
Year to date cooling degree days 0 0  
Moisture  
Dew Point 22 °F    
Average Humidity 61    
Maximum Humidity 92    
Minimum Humidity 30    
Precipitation  
Precipitation 0.10 in 0.08 in 1.39 in (1987)
Month to date precipitation 0.89 2.39  
Year to date precipitation 3.13 6.88  
Sea Level Pressure  
Sea Level Pressure 30.00 in    
Wind  
Wind Speed 8 mph (South)    
Max Wind Speed 22 mph    
Max Gust Speed 28 mph    
Visibility 10 miles    
Events Rain    
T = Trace of Precipitation, MM = Missing Value Source: NWS Daily Summary

Daily Weather History Graph

Daily Weather History Graph

Search for Another Location

Airport or City:

Trip Planner

Search our weather history database for the weather conditions in past years. The results will help you decide how hot, cold, wet, or windy it might be!

Date:

Astronomy

Mar. 31, 2013 Rise Set
Actual Time 6:32 AM EDT 7:16 PM EDT
Civil Twilight 6:03 AM EDT 7:45 PM EDT
Nautical Twilight 5:29 AM EDT 8:20 PM EDT
Astronomical Twilight 4:53 AM EDT 8:56 PM EDT
Moon No Moon Rise 9:08 AM EDT (3/31)
Length of Visible Light 13h 42m
Length of Day
12h 43m
Waning Gibbous, 78% of the Moon is Illuminated
Mar 31
Waning Gibbous
Apr 3
Last Quarter
Apr 10
New
Apr 18
First Quarter
Apr 25
Full

Hourly Weather History & Observations

Time (EDT) Temp. Windchill Dew Point Humidity Pressure Visibility Wind Dir Wind Speed Gust Speed Precip Events Conditions
12:51 AM 25.0 °F - 17.1 °F 72% 30.15 in 10.0 mi Calm Calm - N/A   Clear
1:51 AM 25.0 °F - 17.1 °F 72% 30.15 in 10.0 mi Calm Calm - N/A   Clear
2:51 AM 24.1 °F - 17.1 °F 75% 30.15 in 10.0 mi Calm Calm - N/A   Clear
3:51 AM 23.0 °F - 17.1 °F 78% 30.14 in 10.0 mi Calm Calm - N/A   Clear
4:51 AM 21.0 °F - 17.1 °F 85% 30.14 in 10.0 mi Calm Calm - N/A   Clear
5:51 AM 21.0 °F - 17.1 °F 85% 30.13 in 10.0 mi Calm Calm - N/A   Clear
6:51 AM 21.0 °F - 18.0 °F 88% 30.11 in 10.0 mi Calm Calm - N/A   Clear
7:51 AM 25.0 °F - 21.0 °F 85% 30.12 in 10.0 mi Calm Calm - N/A   Clear
8:51 AM 28.9 °F - 23.0 °F 78% 30.10 in 10.0 mi Calm Calm - N/A   Clear
9:51 AM 42.1 °F 37.1 °F 21.0 °F 43% 30.07 in 10.0 mi South 8.1 mph - N/A   Clear
10:51 AM 46.0 °F 40.2 °F 21.9 °F 39% 30.06 in 10.0 mi South 12.7 mph - N/A   Clear
11:51 AM 46.9 °F - 21.0 °F 36% 30.04 in 10.0 mi South 16.1 mph - N/A   Clear
12:51 PM 48.2 °F - 21.2 °F 34% 29.98 in 10.0 mi SSE 11.5 mph - N/A   Clear
1:51 PM 51.1 °F - 21.0 °F 31% 29.97 in 10.0 mi SSE 8.1 mph - N/A   Clear
2:51 PM 51.1 °F - 21.0 °F 31% 29.94 in 10.0 mi South 17.3 mph - N/A   Clear
3:51 PM 50.0 °F - 21.0 °F 32% 29.92 in 10.0 mi SSE 17.3 mph - N/A   Scattered Clouds
4:51 PM 48.9 °F - 21.9 °F 35% 29.90 in 10.0 mi SSE 12.7 mph - N/A   Clear
5:51 PM 48.0 °F - 21.9 °F 36% 29.89 in 10.0 mi South 12.7 mph - N/A   Clear
6:51 PM 46.0 °F 41.4 °F 24.1 °F 42% 29.87 in 10.0 mi SSE 9.2 mph - N/A   Clear
7:51 PM 46.0 °F 40.2 °F 24.1 °F 42% 29.85 in 10.0 mi South 12.7 mph 23.0 mph N/A   Clear
8:51 PM 45.0 °F 38.5 °F 26.1 °F 48% 29.84 in 10.0 mi South 13.8 mph 18.4 mph N/A   Clear
9:51 PM 42.1 °F 34.9 °F 32.0 °F 67% 29.84 in 10.0 mi South 13.8 mph - 0.00 in Rain Light Rain
10:51 PM 39.0 °F 31.4 °F 36.0 °F 89% 29.82 in 10.0 mi South 12.7 mph - 0.01 in Rain Light Rain
11:51 PM 36.0 °F 28.5 °F 34.0 °F 93% 29.79 in 6.0 mi South 10.4 mph - 0.05 in Rain Light Rain